Regional Weather Roundup
Issued by NWS

Home | Current Version | Previous Version | Text Only | Print | Product List | Glossary Off
Versions: 1 2 3 4 5 6 7 8 9 10 11 12 13 14 15 16 17 18 19 20 21 22 23 24 25 26 27 28 29 30 31 32 33 34 35 36 37 38 39 40 41 42 43 44 45 46 47 48 49 50

000
ASUS43 KMPX 201601
RWRMN
WEATHER ROUNDUP FOR MINNESOTA
NATIONAL WEATHER SERVICE TWIN CITIES/CHANHASSEN MN
1000 AM CST THU NOV 20 2014


NOTE: "FAIR" INDICATES FEW OR NO CLOUDS BELOW 12,000 FEET WITH NO
SIGNIFICANT WEATHER AND/OR OBSTRUCTIONS TO VISIBILITY. N/A MEANS
CURRENT SKY AND/OR WEATHER CONDITIONS ARE NOT AVAILABLE.

MNZ060>063-068>070-201700-
   Twin Cities Metro

CITY           SKY/WX    TMP DP  RH WIND       PRES   REMARKS
TWIN CITIES    SUNNY     13  -1  54 NW20      30.13R WCI  -5
ST PAUL        SUNNY     13  -2  51 NW14      30.14R WCI  -2
CRYSTAL        SUNNY     14   0  53 NW10G21   30.11R WCI   1
BLAINE         SUNNY     14   0  52 NW15G23   30.10R WCI  -1
LAKEVILLE      SUNNY     10   1  67 W10       30.12R WCI  -3
EDEN PRAIRIE   SUNNY     14   1  56 W8        30.12R WCI   3
SOUTH ST PAUL  SUNNY     15  -3  46 NW15      30.12R WCI  -1
LAKE ELMO      FAIR      14   0  52 NW15      30.11R WCI  -1
$$
MNZ001>005-007-008-013>017-022>024-027-028-201700-
   Northwest Minnesota

CITY           SKY/WX    TMP DP  RH WIND       PRES   REMARKS
BEMIDJI        SUNNY      3  -3  75 NW14      30.05R WCI -15
HALLOCK        SUNNY      3  -4  72 NW5       30.12R WCI  -6
ROSEAU         SUNNY      1  -4  78 W7        30.08R WCI -11
WARROAD        SUNNY      3  -2  78 W6        30.06R WCI  -8
THIEF RVR FALL SUNNY      1  -2  85 W5        30.10R WCI  -8
CROOKSTON      SUNNY      7   0  72 NW8       30.15R WCI  -6
FOSSTON        SUNNY      5  -4  66 W6        30.09R WCI  -6
DETROIT LAKES  SUNNY      7   1  78 NW8       30.10R WCI  -6
MOORHEAD       SUNNY     12   7  79 NW7       30.15R WCI   2
PARK RAPIDS    SUNNY      7  -2  66 NW15      30.05R WCI -10
MAHNOMEN       FAIR       0  -4  82 NW5       30.10R WCI -10
$$
MNZ006-009>011-018-025>026-201700-
   North Central Minnesota

CITY           SKY/WX    TMP DP  RH WIND       PRES   REMARKS
BAUDETTE       CLOUDY     4  -3  73 NW17G24   30.03R HAZE    WCI -16
FLAG ISLAND    CLOUDY     1  -2  85 NW16      30.04R HAZE    WCI -18
INTL FALLS     SUNNY      5  -4  66 NW9       29.99R WCI  -9
WASKISH        SUNNY      5   0  78 CALM      30.04R
BIG FORK       MOSUNNY    7  -2  66 NW6       30.00R WCI  -3
LONGVILLE      SUNNY      7   0  72 NW10G16   30.04R WCI  -8
GRAND RAPIDS   MOSUNNY    3  -2  78 NW17G23   29.99R WCI -17
CRANE LAKE     LGT SNOW   3  -2  78 NW7       29.98R WCI  -9
ORR            MOSUNNY    3  -4  72 W12       29.94R WCI -13
COOK           MOSUNNY    3  -2  78 NW9G18    29.96R WCI -11
WALKER         FAIR       4  -4  70 NW8       30.04R WCI -10
$$
MNZ012-019>021-037-201700-
   Northeast Minnesota

CITY           SKY/WX    TMP DP  RH WIND       PRES   REMARKS
DULUTH         LGT SNOW   6  -3  66 NW17G23   29.93R BLWGSNOWWCI -13
ELY            CLOUDY     1  -4  78 NW8       29.91R HAZE    WCI -12
HIBBING        MIX PCPN   5  -3  69 NW14      29.97R WCI -12
EVELETH        PTSUNNY    5  -2  72 NW14G21   29.96R HAZE    WCI -12
DULUTH HARBOR  MOSUNNY    9   0  66 NW16      30.03R WCI  -9
TWO HARBORS    PTSUNNY   10   0  61 NW6       29.93R HAZE    WCI   1
SILVER BAY     SUNNY     10   0  61 W6        29.91R WCI   1
GRAND MARAIS     N/A      8  -6  52 VRB3G18   29.95R
$$
MNZ029>031-032-039>041-046>048-054>057-064-201700-
   West Central Minnesota

CITY           SKY/WX    TMP DP  RH WIND       PRES   REMARKS
FERGUS FALLS   SUNNY      7   1  78 NW6       30.17R WCI  -3
WHEATON        SUNNY      9   3  78 NW6       30.18R WCI  -1
MORRIS         SUNNY      7   1  78 W9        30.14R WCI  -7
ALEXANDRIA     SUNNY      9   2  73 NW10      30.10R WCI  -5
ELBOW LAKE       N/A      5   2  88 NW7       30.13R WCI  -7
WADENA         SUNNY      9   0  66 NW10G16   30.07R WCI  -6
GLENWOOD       SUNNY      7   3  85 W8        30.11R WCI  -6
APPLETON       SUNNY      9   1  72 W6        30.17R WCI  -1
BENSON         SUNNY      7   3  85 NW6       30.15R WCI  -3
ORTONVILLE     SUNNY      9   1  72 W7        30.16R WCI  -3
MADISON        SUNNY     12   5  73 W9        30.18R WCI   0
WILLMAR        LGT SNOW   7   1  78 W6        30.16R WCI  -3
$$
MNZ033>034-036-042>043-049>051-058-059-201700-
   Central Minnesota

CITY           SKY/WX    TMP DP  RH WIND       PRES   REMARKS
ST CLOUD       SUNNY     11   0  61 NW14      30.11R WCI  -5
SAUK CENTRE    FAIR       6  -1  74 W9        30.11R WCI  -8
PAYNESVILLE    SUNNY      5  -1  79 SW7       30.13R WCI  -7
AITKIN         SUNNY     12   0  57 NW8       30.03R WCI   1
PINE RIVER     SUNNY      9   0  66 NW9G18    30.08R WCI  -5
BRAINERD       SUNNY      7  -2  66 NW20      30.06R WCI -13
STAPLES        SUNNY      7   0  72 NW13      30.07R WCI  -9
LONG PRAIRIE   FAIR       9   1  72 W8        30.09R WCI  -4
LITTLE FALLS   SUNNY     10   0  61 NW12      30.10R WCI  -4
LITCHFIELD     SUNNY      9   3  78 W8        30.14R WCI  -4
BUFFALO        SUNNY     12   1  60 W9        30.13S WCI   0
MAPLE LAKE     SUNNY     12   3  66 W9G16     30.13R WCI   0
$$
MNZ037-044-045-052-053-201700-
   East Central Minnesota

CITY           SKY/WX    TMP DP  RH WIND       PRES   REMARKS
PRINCETON      SUNNY     10   0  61 W12G17    30.09R WCI  -4
MORA             N/A    N/A N/A N/A MISG        N/A
CAMBRIDGE      SUNNY     10  -2  56 W13       30.08R WCI  -5
RUSH CITY      SUNNY     10  -1  61 W9        30.08R WCI  -4
MOOSE LAKE     SUNNY     10   0  61 NW14G22   30.01R WCI  -5
HINCKLEY       FAIR      12   0  57 NW10G20   30.05R WCI  -1
CLOQUET        MOSUNNY    7  -2  66 W14       29.97R WCI -10
MCGREGOR       SUNNY      9   1  72 NW16G24   30.03R WCI  -9
$$
MNZ071>073-080-081-089-090-097-098-201700-
   Southwest Minnesota

CITY           SKY/WX    TMP DP  RH WIND       PRES   REMARKS
MONTEVIDEO     SUNNY     14   7  73 NW7       30.18R WCI   4
GRANITE FALLS  SUNNY      9   3  78 W8        30.19R WCI  -4
CANBY          SUNNY     12   5  75 W8        30.18R WCI   0
MARSHALL       SUNNY     10   3  72 NW9       30.16R WCI  -2
REDWOOD FALLS  SUNNY     11   4  73 NW13      30.17R WCI  -4
OLIVIA         SUNNY     12   5  73 NW7       30.16R WCI   2
PIPESTONE      SUNNY      7   3  85 W5        30.14R WCI  -2
WINDOM         SUNNY     10   5  79 W9        30.14R WCI  -2
WORTHINGTON    SUNNY     10   7  85 W7        30.15R WCI   0
JACKSON        SUNNY     12   5  73 W7        30.14R WCI   2
TRACY          SUNNY     14   6  72 NW8       30.16R WCI   3
SLAYTON        SUNNY     10   4  78 W6        30.14R WCI   0
$$
MNZ065>067-074>077-082>085-091>093-201700-
   South Central Minnesota

CITY           SKY/WX    TMP DP  RH WIND       PRES   REMARKS
MANKATO        SUNNY     12   3  67 W7        30.15R WCI   2
NEW ULM        SUNNY     10   7  85 W8        30.16R WCI  -1
FAIRMONT       SUNNY     12   3  67 W10       30.15R WCI  -1
GLENCOE        SUNNY     10   5  79 W6        30.15R WCI   1
FARIBAULT      SUNNY     14   1  57 W9        30.14R WCI   2
OWATONNA       SUNNY     12   3  67 W10       30.13R WCI  -1
WASECA         SUNNY     12   5  73 W9        30.16R WCI   0
$$
MNZ078>079-086>088-094>096-201700-
   Southeast Minnesota

CITY           SKY/WX    TMP DP  RH WIND       PRES   REMARKS
ROCHESTER      SUNNY     13   1  59 NW20      30.09R WCI  -5
RED WING         N/A     16  -2  45 NW13G18   30.10R WCI   2
STANTON        SUNNY     14   2  59 NW14G20   30.12R WCI  -1
DODGE CENTER   SUNNY     12   1  62 NW13G18   30.09R WCI  -3
WINONA         SUNNY     18   3  53 NW16G22   30.11R WCI   3
AUSTIN         SUNNY     12   3  67 W12       30.12R WCI  -2
PRESTON        SUNNY     14   2  60 NW16G22   30.10R WCI  -2
$$
ABBREVIATIONS USED IN REMARKS
   TC - TEMPERATURES IN CELSIUS
  WCI - WIND CHILL INDEX
   HX - HEAT INDEX
  VSB - VISIBILITY
$$



USA.gov is the U.S. government's official web portal to all federal, state and local government web resources and services.